CW2732 Weather Reports


time (UTC)temp
F
wind
direction
speed
knots
gust
knots
rain 1hr
in
rain 24hr
in
rain mn
in
humidity
%
barometer
mb
20260506232333 63 254 0.0 2.6 0.00 0.00 0.00 78 1012.6
20260506231333 63 348 0.9 4.3 0.00 0.00 0.00 78 1012.7
20260506230352 63 360 0.0 2.6 0.00 0.00 0.00 78 1012.6
20260506225334 63 360 1.7 4.3 0.00 0.00 0.00 78 1012.9
20260506224334 63 355 1.7 3.5 0.00 0.00 0.00 79 1012.7
20260506223350 63 5 0.9 3.5 0.00 0.00 0.00 79 1012.6
20260506222336 64 26 1.7 4.3 0.00 0.00 0.00 79 1012.5
20260506221335 64 355 0.0 2.6 0.00 0.00 0.00 79 1012.6
20260506220337 64 59 0.9 3.5 0.00 0.00 0.00 79 1012.7
20260506215349 64 25 0.9 2.6 0.00 0.00 0.00 79 1012.8
20260506214347 64 21 1.7 4.3 0.00 0.00 0.00 80 1012.8
20260506213406 64 25 1.7 3.5 0.00 0.00 0.00 80 1013.1
20260506212404 64 30 0.0 0.9 0.00 0.00 0.00 80 1013.2
20260506211332 64 17 0.9 2.6 0.00 0.00 0.00 80 1013.1
20260506210331 64 26 0.0 3.5 0.00 0.00 0.00 80 1013.0
20260506205356 64 84 0.9 2.6 0.00 0.00 0.00 80 1012.9
20260506204354 64 85 1.7 3.5 0.00 0.00 0.00 80 1012.8
20260506203347 64 78 1.7 3.5 0.00 0.00 0.00 79 1012.8
20260506202331 64 86 1.7 6.1 0.00 0.00 0.00 79 1012.7
20260506201345 64 80 0.9 3.5 0.00 0.00 0.00 79 1012.6
20260506200344 64 87 1.7 4.3 0.00 0.00 0.00 79 1012.5
20260506195357 64 69 1.7 5.2 0.00 0.00 0.00 78 1012.4
20260506194345 64 71 3.5 6.1 0.00 0.00 0.00 78 1012.1
20260506193359 64 51 2.6 7.0 0.00 0.00 0.00 78 1012.1
20260506192334 64 67 3.5 5.2 0.00 0.00 0.00 78 1012.0
20260506191336 64 102 3.5 7.8 0.00 0.00 0.00 78 1012.0
20260506190332 64 59 4.3 8.7 0.00 0.00 0.00 77 1012.0
20260506185338 65 87 3.5 8.7 0.00 0.00 0.00 76 1011.8
20260506184358 65 83 3.5 7.8 0.00 0.00 0.00 76 1011.7
20260506183418 65 78 3.5 7.8 0.00 0.00 0.00 76 1011.7
20260506182404 65 94 7.0 10.4 0.00 0.00 0.00 75 1011.6
20260506181343 65 88 6.1 10.4 0.00 0.00 0.00 75 1011.6
20260506180340 65 76 7.0 13.0 0.00 0.00 0.00 74 1011.5
20260506175354 65 78 7.0 13.0 0.00 0.00 0.00 73 1011.6
20260506174346 66 96 6.1 16.5 0.00 0.00 0.00 74 1011.4
20260506173344 66 98 6.1 16.5 0.00 0.00 0.00 73 1011.6
20260506172334 66 132 5.2 16.5 0.00 0.00 0.00 73 1011.6
20260506171332 66 78 6.1 16.5 0.00 0.00 0.00 74 1011.5
20260506170341 67 63 4.3 16.5 0.00 0.00 0.00 73 1011.2
20260506165334 67 79 5.2 16.5 0.00 0.00 0.00 73 1011.4
20260506164348 67 96 5.2 16.5 0.00 0.00 0.00 72 1011.3
20260506163343 67 74 7.0 16.5 0.00 0.00 0.00 71 1011.3
20260506162334 67 87 7.8 16.5 0.00 0.00 0.00 70 1011.3
20260506161333 68 58 7.8 16.5 0.00 0.00 0.00 69 1011.3
20260506160352 68 43 8.7 16.5 0.00 0.00 0.00 68 1011.3
20260506155336 69 86 9.6 16.5 0.00 0.00 0.00 67 1011.0
20260506154336 69 136 6.1 16.5 0.00 0.00 0.00 66 1011.0
20260506153346 69 118 9.6 16.5 0.00 0.00 0.00 66 1011.1
20260506152334 69 94 7.8 16.5 0.00 0.00 0.00 65 1011.0
20260506151348 69 44 7.8 16.5 0.00 0.00 0.00 66 1011.2
20260506150403 69 45 7.8 16.5 0.00 0.00 0.00 66 1011.1
20260506145354 70 79 7.0 16.5 0.00 0.00 0.00 65 1011.3
20260506144345 70 51 7.8 16.5 0.00 0.00 0.00 65 1011.3
20260506143337 70 95 8.7 16.5 0.00 0.00 0.00 65 1011.6
20260506142356 70 98 7.8 16.5 0.00 0.00 0.00 65 1011.7
20260506141334 69 69 6.1 16.5 0.00 0.00 0.00 68 1011.5
20260506140334 70 57 6.1 16.5 0.00 0.00 0.00 66 1011.8
20260506135343 69 122 6.1 16.5 0.00 0.00 0.00 66 1011.7
20260506134334 69 78 7.0 16.5 0.00 0.00 0.00 66 1011.8
20260506133333 70 45 7.8 16.5 0.00 0.00 0.00 66 1011.8
20260506132345 69 92 7.0 16.5 0.00 0.00 0.00 67 1011.7
20260506131345 70 55 8.7 16.5 0.00 0.00 0.00 66 1011.9
20260506130334 70 65 8.7 16.5 0.00 0.00 0.00 65 1011.8
20260506125415 71 59 7.0 15.6 0.00 0.00 0.00 64 1011.9
20260506124346 71 79 7.0 15.6 0.00 0.00 0.00 64 1011.9
20260506123356 70 80 8.7 15.6 0.00 0.00 0.00 64 1011.8
20260506122354 71 137 8.7 15.6 0.00 0.00 0.00 63 1011.9
20260506121414 71 111 7.8 15.6 0.00 0.00 0.00 63 1012.1
20260506120342 70 38 6.1 15.6 0.00 0.00 0.00 65 1012.0
20260506115336 71 87 7.0 15.6 0.00 0.00 0.00 63 1012.2
20260506114355 71 78 7.0 15.6 0.00 0.00 0.00 62 1012.1
20260506113345 70 129 8.7 15.6 0.00 0.00 0.00 64 1012.1
20260506112345 70 96 7.0 15.6 0.00 0.00 0.00 63 1012.4
20260506111335 72 65 7.0 15.6 0.00 0.00 0.00 61 1012.4
20260506110331 71 138 6.1 15.6 0.00 0.00 0.00 64 1012.3
20260506105342 71 350 6.1 15.6 0.00 0.00 0.00 63 1012.5
20260506104333 71 84 8.7 15.6 0.00 0.00 0.00 59 1012.5
20260506103334 71 106 7.8 13.9 0.00 0.00 0.00 60 1012.6
20260506102355 71 30 7.8 13.9 0.00 0.00 0.00 61 1012.6
20260506101405 72 111 5.2 13.9 0.00 0.00 0.00 59 1012.5
20260506100343 71 63 5.2 13.0 0.00 0.00 0.00 59 1012.5
20260506095354 71 113 6.1 13.0 0.00 0.00 0.00 59 1012.4
20260506094348 73 344 7.8 13.0 0.00 0.00 0.00 57 1012.4
20260506093334 72 128 7.0 12.2 0.00 0.00 0.00 59 1012.4
20260506092333 71 84 2.6 9.6 0.00 0.00 0.00 60 1012.4
20260506091342 70 19 2.6 9.6 0.00 0.00 0.00 61 1012.0
20260506090341 71 10 0.9 9.6 0.00 0.00 0.00 59 1011.9
20260506085334 73 36 2.6 9.6 0.00 0.00 0.00 56 1011.9
20260506084412 72 108 0.9 9.6 0.00 0.00 0.00 59 1011.9
20260506083339 71 134 1.7 9.6 0.00 0.00 0.00 62 1011.9
20260506082339 71 253 0.9 7.0 0.00 0.00 0.00 64 1011.9
20260506081330 70 83 0.9 7.0 0.00 0.00 0.00 66 1012.0
20260506080406 71 78 0.9 7.0 0.00 0.00 0.00 64 1012.0
20260506073334 69 281 0.9 7.0 0.00 0.00 0.00 64 1012.0
20260506072353 68 338 0.9 7.0 0.00 0.00 0.00 65 1012.1
20260506071343 68 281 3.5 7.0 0.00 0.00 0.00 64 1012.0
20260506070404 68 273 0.0 7.0 0.00 0.00 0.00 65 1011.9
20260506062335 65 317 1.7 7.0 0.00 0.00 0.00 69 1012.0
20260506061334 64 355 2.6 6.1 0.00 0.00 0.00 69 1012.0
20260506060413 63 342 1.7 6.1 0.00 0.00 0.00 70 1012.1
20260506051335 62 348 1.7 5.2 0.00 0.00 0.00 71 1011.5
20260506050346 61 333 1.7 5.2 0.00 0.00 0.00 71 1011.3
20260506044334 62 309 2.6 4.3 0.00 0.00 0.00 70 1011.2
20260506043353 62 322 0.9 7.0 0.00 0.00 0.00 70 1011.3
20260506042341 62 279 1.7 5.2 0.00 0.00 0.00 70 1011.2
20260506041341 62 337 1.7 7.0 0.00 0.00 0.00 70 1011.2
20260506040328 62 298 0.9 4.3 0.00 0.00 0.00 70 1011.2
20260506035341 63 348 2.6 5.2 0.00 0.00 0.00 70 1011.1
20260506034341 63 355 2.6 8.7 0.00 0.00 0.00 70 1011.1
20260506033353 62 263 1.7 7.0 0.00 0.00 0.00 70 1011.1
20260506032332 62 321 0.9 4.3 0.00 0.00 0.00 70 1011.1
20260506031349 62 355 0.9 2.6 0.00 0.00 0.00 69 1011.1
20260506030339 62 103 0.0 0.0 0.00 0.00 0.00 67 1011.0
20260506025332 63 103 0.0 1.7 0.00 0.00 0.00 67 1011.0
20260506024349 63 94 1.7 4.3 0.00 0.00 0.00 67 1010.9
20260506023334 63 232 0.0 4.3 0.00 0.00 0.00 67 1010.8
20260506022333 63 266 0.0 0.9 0.00 0.00 0.00 65 1010.8
20260506021352 63 242 1.7 2.6 0.00 0.00 0.00 63 1010.9
20260506020343 63 242 0.0 0.9 0.00 0.00 0.00 61 1010.9
20260506015335 63 259 0.0 0.9 0.00 0.00 0.00 61 1010.9
20260506014355 63 267 0.0 0.9 0.00 0.00 0.00 61 1010.9
20260506013352 64 269 0.0 2.6 0.00 0.00 0.00 61 1011.0
20260506012400 64 267 0.9 2.6 0.00 0.00 0.00 63 1011.1
20260506011354 64 188 0.0 2.6 0.00 0.00 0.00 63 1011.0
20260506010333 64 228 0.0 2.6 0.00 0.00 0.00 63 1011.0
20260506005406 64 223 0.0 3.5 0.00 0.00 0.00 65 1011.0
20260506004404 65 259 0.0 2.6 0.00 0.00 0.00 65 1010.9
20260506003335 65 312 0.9 3.5 0.00 0.00 0.00 66 1011.1
20260506002335 65 281 0.0 1.7 0.00 0.00 0.00 68 1011.0
20260506001355 64 341 0.0 3.5 0.00 0.00 0.00 69 1011.1
20260506000342 64 269 0.0 1.7 0.00 0.00 0.00 71 1011.2
20260505235332 64 304 0.0 1.7 0.00 0.00 0.00 71 1011.3
20260505234352 64 350 0.9 3.5 0.00 0.00 0.00 72 1011.4
20260505233344 64 323 0.9 1.7 0.00 0.00 0.00 73 1011.4